Time,TemperatureF,DewpointF,PressureIn,WindDirection,WindDirectionDegrees,WindSpeedMPH,WindSpeedGustMPH,Humidity,HourlyPrecipIn,Conditions,Clouds,dailyrainin,SoftwareType,DateUTC
2013-03-15 00:00:00,49.0,38.0,30.24,WSW,240,8.0,10.0,64,-99.99,,,-99.99,,2013-03-15 04:00:00,
2013-03-15 00:22:00,49.0,38.0,30.24,WSW,240,8.0,10.0,64,-99.99,,,-99.99,,2013-03-15 04:22:00,
2013-03-15 00:32:00,49.0,38.0,30.24,WSW,240,8.0,10.0,64,-99.99,,,-99.99,,2013-03-15 04:32:00,
2013-03-15 00:42:00,49.0,38.0,30.24,WSW,240,8.0,10.0,64,-99.99,,,-99.99,,2013-03-15 04:42:00,
2013-03-15 00:52:00,49.0,38.0,30.24,WSW,240,8.0,10.0,64,-99.99,,,-99.99,,2013-03-15 04:52:00,
2013-03-15 01:00:00,47.0,36.0,30.23,WSW,250,6.0,8.0,66,-99.99,,,-99.99,,2013-03-15 05:00:00,
2013-03-15 01:21:00,47.0,36.0,30.23,WSW,250,6.0,8.0,66,-99.99,,,-99.99,,2013-03-15 05:21:00,
2013-03-15 01:31:00,47.0,36.0,30.23,WSW,250,6.0,8.0,66,-99.99,,,-99.99,,2013-03-15 05:31:00,
2013-03-15 01:42:00,47.0,36.0,30.23,WSW,250,6.0,8.0,66,-99.99,,,-99.99,,2013-03-15 05:42:00,
2013-03-15 01:52:00,47.0,36.0,30.23,WSW,250,6.0,8.0,66,-99.99,,,-99.99,,2013-03-15 05:52:00,
2013-03-15 02:00:00,47.0,37.0,30.23,West,260,6.0,8.0,70,-99.99,,,-99.99,,2013-03-15 06:00:00,
2013-03-15 02:21:00,47.0,37.0,30.23,West,260,6.0,8.0,70,-99.99,,,-99.99,,2013-03-15 06:21:00,
2013-03-15 02:31:00,47.0,37.0,30.23,West,260,6.0,8.0,70,-99.99,,,-99.99,,2013-03-15 06:31:00,
2013-03-15 02:41:00,47.0,37.0,30.23,West,260,6.0,8.0,70,-99.99,,,-99.99,,2013-03-15 06:41:00,
2013-03-15 02:52:00,47.0,37.0,30.23,West,260,6.0,8.0,70,-99.99,,,-99.99,,2013-03-15 06:52:00,
2013-03-15 03:00:00,46.0,38.0,30.21,West,260,5.0,7.0,71,-99.99,,,-99.99,,2013-03-15 07:00:00,
2013-03-15 03:21:00,46.0,38.0,30.21,West,260,5.0,7.0,71,-99.99,,,-99.99,,2013-03-15 07:21:00,
2013-03-15 03:31:00,46.0,38.0,30.21,West,260,5.0,7.0,71,-99.99,,,-99.99,,2013-03-15 07:31:00,
2013-03-15 03:42:00,46.0,38.0,30.21,West,260,5.0,7.0,71,-99.99,,,-99.99,,2013-03-15 07:42:00,
2013-03-15 03:51:00,46.0,38.0,30.21,West,260,5.0,7.0,71,-99.99,,,-99.99,,2013-03-15 07:51:00,
2013-03-15 04:00:00,46.0,36.0,30.20,West,260,5.0,7.0,68,-99.99,,,-99.99,,2013-03-15 08:00:00,
2013-03-15 04:22:00,46.0,36.0,30.20,West,260,5.0,7.0,68,-99.99,,,-99.99,,2013-03-15 08:22:00,
2013-03-15 04:31:00,46.0,36.0,30.20,West,260,5.0,7.0,68,-99.99,,,-99.99,,2013-03-15 08:31:00,
2013-03-15 04:41:00,46.0,36.0,30.20,West,260,5.0,7.0,68,-99.99,,,-99.99,,2013-03-15 08:41:00,
2013-03-15 04:52:00,46.0,36.0,30.20,West,260,5.0,7.0,68,-99.99,,,-99.99,,2013-03-15 08:52:00,
2013-03-15 05:00:00,45.0,37.0,30.19,WSW,250,6.0,8.0,74,-99.99,,,-99.99,,2013-03-15 09:00:00,
2013-03-15 05:32:00,45.0,37.0,30.19,WSW,250,6.0,8.0,74,-99.99,,,-99.99,,2013-03-15 09:32:00,
2013-03-15 05:42:00,45.0,37.0,30.19,WSW,250,6.0,8.0,74,-99.99,,,-99.99,,2013-03-15 09:42:00,
2013-03-15 05:52:00,45.0,37.0,30.19,WSW,250,6.0,8.0,74,-99.99,,,-99.99,,2013-03-15 09:52:00,
2013-03-15 06:00:00,44.0,38.0,30.21,West,270,5.0,6.0,79,-99.99,,,-99.99,,2013-03-15 10:00:00,
2013-03-15 06:22:00,44.0,38.0,30.21,West,270,5.0,6.0,79,-99.99,,,-99.99,,2013-03-15 10:22:00,
2013-03-15 06:32:00,44.0,38.0,30.21,West,270,5.0,6.0,79,-99.99,,,-99.99,,2013-03-15 10:32:00,
2013-03-15 06:41:00,44.0,38.0,30.21,West,270,5.0,6.0,79,-99.99,,,-99.99,,2013-03-15 10:41:00,
2013-03-15 06:51:00,44.0,38.0,30.21,West,270,5.0,6.0,79,-99.99,,,-99.99,,2013-03-15 10:51:00,
2013-03-15 07:00:00,42.0,36.0,30.22,West,270,5.0,6.0,78,-99.99,,,-99.99,,2013-03-15 11:00:00,
2013-03-15 07:21:00,42.0,36.0,30.22,West,270,5.0,6.0,78,-99.99,,,-99.99,,2013-03-15 11:21:00,
2013-03-15 07:31:00,42.0,36.0,30.22,West,270,5.0,6.0,78,-99.99,,,-99.99,,2013-03-15 11:31:00,
2013-03-15 07:41:00,42.0,36.0,30.22,West,270,5.0,6.0,78,-99.99,,,-99.99,,2013-03-15 11:41:00,
2013-03-15 07:51:00,42.0,36.0,30.22,West,270,5.0,6.0,78,-99.99,,,-99.99,,2013-03-15 11:51:00,
2013-03-15 08:00:00,41.0,34.0,30.23,WNW,290,5.0,6.0,75,-99.99,,,-99.99,,2013-03-15 12:00:00,
2013-03-15 08:21:00,41.0,34.0,30.23,WNW,290,5.0,6.0,75,-99.99,,,-99.99,,2013-03-15 12:21:00,
2013-03-15 08:31:00,41.0,34.0,30.23,WNW,290,5.0,6.0,75,-99.99,,,-99.99,,2013-03-15 12:31:00,
2013-03-15 08:41:00,41.0,34.0,30.23,WNW,290,5.0,6.0,75,-99.99,,,-99.99,,2013-03-15 12:41:00,
2013-03-15 08:51:00,41.0,34.0,30.23,WNW,290,5.0,6.0,75,-99.99,,,-99.99,,2013-03-15 12:51:00,
2013-03-15 09:00:00,44.0,30.0,30.25,WNW,290,8.0,11.0,58,-99.99,,,-99.99,,2013-03-15 13:00:00,
2013-03-15 09:21:00,44.0,30.0,30.25,WNW,290,8.0,11.0,58,-99.99,,,-99.99,,2013-03-15 13:21:00,
2013-03-15 09:31:00,44.0,30.0,30.25,WNW,290,8.0,11.0,58,-99.99,,,-99.99,,2013-03-15 13:31:00,
2013-03-15 09:41:00,44.0,30.0,30.25,WNW,290,8.0,11.0,58,-99.99,,,-99.99,,2013-03-15 13:41:00,
2013-03-15 09:52:00,44.0,30.0,30.25,WNW,290,8.0,11.0,58,-99.99,,,-99.99,,2013-03-15 13:52:00,
2013-03-15 10:00:00,48.0,32.0,30.25,NW,320,5.0,7.0,52,-99.99,,,-99.99,,2013-03-15 14:00:00,
2013-03-15 10:21:00,48.0,32.0,30.25,NW,320,5.0,7.0,52,-99.99,,,-99.99,,2013-03-15 14:21:00,
2013-03-15 10:32:00,48.0,32.0,30.25,NW,320,5.0,7.0,52,-99.99,,,-99.99,,2013-03-15 14:32:00,
2013-03-15 10:41:00,48.0,32.0,30.25,NW,320,5.0,7.0,52,-99.99,,,-99.99,,2013-03-15 14:41:00,
2013-03-15 10:51:00,48.0,32.0,30.25,NW,320,5.0,7.0,52,-99.99,,,-99.99,,2013-03-15 14:51:00,
2013-03-15 11:00:00,51.0,34.0,30.24,ENE,60,3.0,5.0,51,-99.99,,,-99.99,,2013-03-15 15:00:00,
2013-03-15 11:21:00,51.0,34.0,30.24,ENE,60,3.0,5.0,51,-99.99,,,-99.99,,2013-03-15 15:21:00,
2013-03-15 11:32:00,51.0,34.0,30.24,ENE,60,3.0,5.0,51,-99.99,,,-99.99,,2013-03-15 15:32:00,
2013-03-15 11:42:00,51.0,34.0,30.24,ENE,60,3.0,5.0,51,-99.99,,,-99.99,,2013-03-15 15:42:00,
2013-03-15 11:52:00,51.0,34.0,30.24,ENE,60,3.0,5.0,51,-99.99,,,-99.99,,2013-03-15 15:52:00,
2013-03-15 12:00:00,51.0,35.0,30.23,SE,140,3.0,3.0,54,-99.99,,,-99.99,,2013-03-15 16:00:00,
2013-03-15 12:22:00,51.0,35.0,30.23,SE,140,3.0,3.0,54,-99.99,,,-99.99,,2013-03-15 16:22:00,
2013-03-15 12:32:00,51.0,35.0,30.23,SE,140,3.0,3.0,54,-99.99,,,-99.99,,2013-03-15 16:32:00,
2013-03-15 12:41:00,51.0,35.0,30.23,SE,140,3.0,3.0,54,-99.99,,,-99.99,,2013-03-15 16:41:00,
2013-03-15 12:52:00,51.0,35.0,30.23,SE,140,3.0,3.0,54,-99.99,,,-99.99,,2013-03-15 16:52:00,
2013-03-15 13:00:00,51.0,32.0,30.22,South,180,7.0,8.0,47,-99.99,,,-99.99,,2013-03-15 17:00:00,
2013-03-15 13:21:00,51.0,32.0,30.22,South,180,7.0,8.0,47,-99.99,,,-99.99,,2013-03-15 17:21:00,
2013-03-15 13:32:00,51.0,32.0,30.22,South,180,7.0,8.0,47,-99.99,,,-99.99,,2013-03-15 17:32:00,
2013-03-15 13:41:00,51.0,32.0,30.22,South,180,7.0,8.0,47,-99.99,,,-99.99,,2013-03-15 17:41:00,
2013-03-15 13:52:00,51.0,32.0,30.22,South,180,7.0,8.0,47,-99.99,,,-99.99,,2013-03-15 17:52:00,
2013-03-15 14:00:00,52.0,37.0,30.19,South,180,8.0,9.0,55,-99.99,,,-99.99,,2013-03-15 18:00:00,
2013-03-15 14:21:00,52.0,37.0,30.19,South,180,8.0,9.0,55,-99.99,,,-99.99,,2013-03-15 18:21:00,
2013-03-15 14:31:00,52.0,37.0,30.19,South,180,8.0,9.0,55,-99.99,,,-99.99,,2013-03-15 18:31:00,
2013-03-15 14:41:00,52.0,37.0,30.19,South,180,8.0,9.0,55,-99.99,,,-99.99,,2013-03-15 18:41:00,
2013-03-15 14:51:00,52.0,37.0,30.19,South,180,8.0,9.0,55,-99.99,,,-99.99,,2013-03-15 18:51:00,
2013-03-15 15:00:00,54.0,42.0,30.16,South,190,11.0,13.0,61,-99.99,,,-99.99,,2013-03-15 19:00:00,
2013-03-15 15:31:00,54.0,42.0,30.16,South,190,11.0,13.0,61,-99.99,,,-99.99,,2013-03-15 19:31:00,
2013-03-15 15:41:00,54.0,42.0,30.16,South,190,11.0,13.0,61,-99.99,,,-99.99,,2013-03-15 19:41:00,
2013-03-15 15:52:00,54.0,42.0,30.16,South,190,11.0,13.0,61,-99.99,,,-99.99,,2013-03-15 19:52:00,
2013-03-15 16:21:00,56.0,44.0,30.12,SSW,200,11.0,14.0,62,-99.99,,,-99.99,,2013-03-15 20:21:00,
2013-03-15 16:31:00,56.0,44.0,30.12,SSW,200,11.0,14.0,62,-99.99,,,-99.99,,2013-03-15 20:31:00,
2013-03-15 16:41:00,56.0,44.0,30.12,SSW,200,11.0,14.0,62,-99.99,,,-99.99,,2013-03-15 20:41:00,
2013-03-15 16:51:00,56.0,44.0,30.12,SSW,200,11.0,14.0,62,-99.99,,,-99.99,,2013-03-15 20:51:00,
2013-03-15 17:00:00,56.0,45.0,30.09,South,190,15.0,17.0,65,-99.99,,,-99.99,,2013-03-15 21:00:00,
2013-03-15 17:21:00,56.0,45.0,30.09,South,190,15.0,17.0,65,-99.99,,,-99.99,,2013-03-15 21:21:00,
2013-03-15 17:32:00,56.0,45.0,30.09,South,190,15.0,17.0,65,-99.99,,,-99.99,,2013-03-15 21:32:00,
2013-03-15 17:42:00,56.0,45.0,30.09,South,190,15.0,17.0,65,-99.99,,,-99.99,,2013-03-15 21:42:00,
2013-03-15 17:52:00,56.0,45.0,30.09,South,190,15.0,17.0,65,-99.99,,,-99.99,,2013-03-15 21:52:00,
2013-03-15 18:00:00,56.0,46.0,30.08,SSW,200,16.0,18.0,69,-99.99,,,-99.99,,2013-03-15 22:00:00,
2013-03-15 18:22:00,56.0,46.0,30.08,SSW,200,16.0,18.0,69,-99.99,,,-99.99,,2013-03-15 22:22:00,
2013-03-15 18:32:00,56.0,46.0,30.08,SSW,200,16.0,18.0,69,-99.99,,,-99.99,,2013-03-15 22:32:00,
2013-03-15 18:41:00,56.0,46.0,30.08,SSW,200,16.0,18.0,69,-99.99,,,-99.99,,2013-03-15 22:41:00,
2013-03-15 18:52:00,56.0,46.0,30.08,SSW,200,16.0,18.0,69,-99.99,,,-99.99,,2013-03-15 22:52:00,
2013-03-15 19:00:00,56.0,46.0,30.08,SSW,210,16.0,18.0,68,-99.99,,,-99.99,,2013-03-15 23:00:00,
2013-03-15 19:21:00,56.0,46.0,30.08,SSW,210,16.0,18.0,68,-99.99,,,-99.99,,2013-03-15 23:21:00,
2013-03-15 19:31:00,56.0,46.0,30.08,SSW,210,16.0,18.0,68,-99.99,,,-99.99,,2013-03-15 23:31:00,
2013-03-15 19:41:00,56.0,46.0,30.08,SSW,210,16.0,18.0,68,-99.99,,,-99.99,,2013-03-15 23:41:00,
2013-03-15 19:52:00,56.0,46.0,30.08,SSW,210,16.0,18.0,68,-99.99,,,-99.99,,2013-03-15 23:52:00,
2013-03-15 20:00:00,56.0,49.0,30.09,SSW,210,16.0,18.0,77,-99.99,,,-99.99,,2013-03-16 00:00:00,
2013-03-15 20:22:00,56.0,49.0,30.09,SSW,210,16.0,18.0,77,-99.99,,,-99.99,,2013-03-16 00:22:00,
2013-03-15 20:31:00,56.0,49.0,30.09,SSW,210,16.0,18.0,77,-99.99,,,-99.99,,2013-03-16 00:31:00,
2013-03-15 20:42:00,56.0,49.0,30.09,SSW,210,16.0,18.0,77,-99.99,,,-99.99,,2013-03-16 00:42:00,
2013-03-15 20:51:00,56.0,49.0,30.09,SSW,210,16.0,18.0,77,-99.99,,,-99.99,,2013-03-16 00:51:00,
2013-03-15 21:00:00,56.0,49.0,30.09,SSW,210,14.0,16.0,78,-99.99,,,-99.99,,2013-03-16 01:00:00,
2013-03-15 21:21:00,56.0,49.0,30.09,SSW,210,14.0,16.0,78,-99.99,,,-99.99,,2013-03-16 01:21:00,
2013-03-15 21:31:00,56.0,49.0,30.09,SSW,210,14.0,16.0,78,-99.99,,,-99.99,,2013-03-16 01:31:00,
2013-03-15 21:41:00,56.0,49.0,30.09,SSW,210,14.0,16.0,78,-99.99,,,-99.99,,2013-03-16 01:41:00,
2013-03-15 21:51:00,56.0,49.0,30.09,SSW,210,14.0,16.0,78,-99.99,,,-99.99,,2013-03-16 01:51:00,
2013-03-15 22:00:00,56.0,51.0,30.09,SW,220,14.0,15.0,84,-99.99,,,-99.99,,2013-03-16 02:00:00,
2013-03-15 22:21:00,56.0,51.0,30.09,SW,220,14.0,15.0,84,-99.99,,,-99.99,,2013-03-16 02:21:00,
2013-03-15 22:32:00,56.0,51.0,30.09,SW,220,14.0,15.0,84,-99.99,,,-99.99,,2013-03-16 02:32:00,
2013-03-15 22:42:00,56.0,51.0,30.09,SW,220,14.0,15.0,84,-99.99,,,-99.99,,2013-03-16 02:42:00,
2013-03-15 22:51:00,56.0,51.0,30.09,SW,220,14.0,15.0,84,-99.99,,,-99.99,,2013-03-16 02:51:00,
2013-03-15 23:00:00,56.0,52.0,30.09,SW,220,17.0,18.0,84,-99.99,,,-99.99,,2013-03-16 03:00:00,
2013-03-15 23:21:00,56.0,52.0,30.09,SW,220,17.0,18.0,84,-99.99,,,-99.99,,2013-03-16 03:21:00,
2013-03-15 23:32:00,56.0,52.0,30.09,SW,220,17.0,18.0,84,-99.99,,,-99.99,,2013-03-16 03:32:00,
2013-03-15 23:42:00,56.0,52.0,30.09,SW,220,17.0,18.0,84,-99.99,,,-99.99,,2013-03-16 03:42:00,
2013-03-15 23:52:00,56.0,52.0,30.09,SW,220,17.0,18.0,84,-99.99,,,-99.99,,2013-03-16 03:52:00,